When you browse on this site, cookies collect data to enhance your experience and personalize the content and advertising you see.
Visit our Privacy Policy to learn more. By continuing to use the site, you agree to this use of cookies and data.

Previsão horária em Elizavetino

Hoje, 5 Agosto, Quarta-feira

Tempo Temperatura Precipitação Vento Pressão Humidade
00:00 +16°C° 0 mm 1 m/s 752 mmHg 84%
01:00 +16°C° 0 mm 1 m/s 752 mmHg 85%
02:00 +15°C° 0 mm 1 m/s 752 mmHg 86%
03:00 +15°C° 0 mm 1 m/s 753 mmHg 87%
04:00 +15°C° 0 mm 1 m/s 753 mmHg 86%
05:00 +15°C° 0 mm 1 m/s 753 mmHg 86%
06:00 +15°C° 0 mm 1 m/s 752 mmHg 86%
07:00 +17°C° 0 mm 2 m/s 753 mmHg 79%
08:00 +19°C° 0 mm 2 m/s 753 mmHg 72%
09:00 +21°C° 0 mm 2 m/s 753 mmHg 66%
10:00 +23°C° 0 mm 2 m/s 753 mmHg 61%
11:00 +24°C° 0 mm 2 m/s 753 mmHg 57%
12:00 +26°C° 0 mm 3 m/s 753 mmHg 52%
13:00 +26°C° 0 mm 3 m/s 753 mmHg 52%
14:00 +26°C° 0 mm 3 m/s 753 mmHg 52%
15:00 +26°C° 0 mm 2 m/s 753 mmHg 51%
16:00 +26°C° 0 mm 2 m/s 753 mmHg 54%
17:00 +26°C° 0 mm 2 m/s 752 mmHg 57%
18:00 +26°C° 0 mm 1 m/s 752 mmHg 60%
19:00 +24°C° 0 mm 1 m/s 752 mmHg 66%
20:00 +22°C° 0 mm 1 m/s 752 mmHg 72%
21:00 +20°C° 0 mm 1 m/s 752 mmHg 78%
22:00 +19°C° 0 mm 1 m/s 753 mmHg 79%
23:00 +19°C° 0 mm 1 m/s 753 mmHg 81%

Amanhã, 6 Agosto, Quinta-feira

Tempo Temperatura Precipitação Vento Pressão Humidade
00:00 +19°C° 0 mm 1 m/s 753 mmHg 82%
01:00 +18°C° 0 mm 1 m/s 753 mmHg 83%
02:00 +18°C° 0 mm 1 m/s 753 mmHg 85%
03:00 +16°C° 0 mm 1 m/s 753 mmHg 86%
04:00 +18°C° 0 mm 1 m/s 753 mmHg 85%
05:00 +18°C° 0 mm 1 m/s 753 mmHg 85%
06:00 +18°C° 0 mm 1 m/s 753 mmHg 84%
07:00 +20°C° 0 mm 1 m/s 753 mmHg 79%
08:00 +22°C° 0 mm 1 m/s 753 mmHg 74%
09:00 +23°C° 0 mm 1 m/s 754 mmHg 68%
10:00 +25°C° 0 mm 1 m/s 753 mmHg 64%
11:00 +26°C° 0 mm 2 m/s 753 mmHg 60%
12:00 +27°C° 0 mm 2 m/s 753 mmHg 55%
13:00 +28°C° 0.1 mm 2 m/s 753 mmHg 55%
14:00 +28°C° 0.1 mm 2 m/s 753 mmHg 56%
15:00 +28°C° 0.1 mm 2 m/s 753 mmHg 56%
16:00 +27°C° 0.7 mm 2 m/s 753 mmHg 64%
17:00 +26°C° 0.7 mm 2 m/s 753 mmHg 72%
18:00 +25°C° 0.7 mm 2 m/s 752 mmHg 80%
19:00 +24°C° 0.2 mm 2 m/s 753 mmHg 84%
20:00 +21°C° 0.2 mm 2 m/s 753 mmHg 89%
21:00 +20°C° 0.2 mm 3 m/s 753 mmHg 93%
22:00 +19°C° 0 mm 3 m/s 753 mmHg 93%
23:00 +18°C° 0 mm 3 m/s 753 mmHg 92%

Depois de amanhã, 7 Agosto, Sexta-feira

Tempo Temperatura Precipitação Vento Pressão Humidade
00:00 +17°C° 0 mm 3 m/s 753 mmHg 92%
01:00 +17°C° 0 mm 3 m/s 754 mmHg 92%
02:00 +16°C° 0 mm 3 m/s 754 mmHg 93%
03:00 +16°C° 0 mm 3 m/s 754 mmHg 93%
04:00 +14°C° 0 mm 3 m/s 754 mmHg 92%
05:00 +14°C° 0 mm 3 m/s 754 mmHg 90%
06:00 +14°C° 0 mm 3 m/s 754 mmHg 89%
07:00 +17°C° 0 mm 3 m/s 755 mmHg 82%
08:00 +18°C° 0 mm 3 m/s 755 mmHg 76%
09:00 +20°C° 0 mm 3 m/s 755 mmHg 69%
10:00 +21°C° 0 mm 4 m/s 755 mmHg 63%
11:00 +22°C° 0 mm 4 m/s 755 mmHg 56%
12:00 +23°C° 0 mm 4 m/s 755 mmHg 50%
13:00 +25°C° 0 mm 4 m/s 755 mmHg 49%
14:00 +25°C° 0 mm 4 m/s 755 mmHg 48%
15:00 +25°C° 0 mm 4 m/s 755 mmHg 48%
16:00 +25°C° 0 mm 4 m/s 755 mmHg 52%
17:00 +23°C° 0 mm 4 m/s 755 mmHg 56%
18:00 +23°C° 0 mm 4 m/s 755 mmHg 60%
19:00 +21°C° 0 mm 3 m/s 755 mmHg 66%
20:00 +19°C° 0 mm 3 m/s 755 mmHg 73%
21:00 +17°C° 0 mm 2 m/s 755 mmHg 79%
22:00 +16°C° 0 mm 2 m/s 755 mmHg 81%
23:00 +15°C° 0 mm 2 m/s 755 mmHg 82%

8 Agosto, Sábado

Tempo Temperatura Precipitação Vento Pressão Humidade
00:00 +15°C° 0 mm 2 m/s 755 mmHg 83%
01:00 +14°C° 0 mm 2 m/s 755 mmHg 84%
02:00 +14°C° 0 mm 2 m/s 755 mmHg 86%
03:00 +13°C° 0 mm 2 m/s 755 mmHg 87%
04:00 +14°C° 0 mm 2 m/s 755 mmHg 86%
05:00 +14°C° 0 mm 2 m/s 755 mmHg 86%
06:00 +14°C° 0 mm 2 m/s 755 mmHg 86%
07:00 +16°C° 0 mm 2 m/s 755 mmHg 79%
08:00 +18°C° 0 mm 2 m/s 755 mmHg 72%
09:00 +20°C° 0 mm 2 m/s 755 mmHg 65%
10:00 +21°C° 0 mm 2 m/s 755 mmHg 59%
11:00 +23°C° 0 mm 2 m/s 755 mmHg 54%
12:00 +24°C° 0 mm 3 m/s 754 mmHg 49%
13:00 +25°C° 0 mm 3 m/s 754 mmHg 48%
14:00 +25°C° 0 mm 3 m/s 754 mmHg 47%
15:00 +25°C° 0 mm 3 m/s 753 mmHg 46%
16:00 +25°C° 0 mm 3 m/s 753 mmHg 51%
17:00 +24°C° 0 mm 3 m/s 752 mmHg 56%
18:00 +22°C° 0 mm 3 m/s 752 mmHg 61%
19:00 +21°C° 0 mm 2 m/s 752 mmHg 69%
20:00 +19°C° 0 mm 2 m/s 752 mmHg 76%
21:00 +17°C° 0 mm 2 m/s 752 mmHg 84%
22:00 +16°C° 0 mm 2 m/s 752 mmHg 85%
23:00 +16°C° 0 mm 2 m/s 752 mmHg 86%

9 Agosto, Domingo

Tempo Temperatura Precipitação Vento Pressão Humidade
00:00 +15°C° 0 mm 2 m/s 752 mmHg 88%
01:00 +14°C° 0 mm 2 m/s 752 mmHg 89%
02:00 +14°C° 0 mm 1 m/s 751 mmHg 91%
03:00 +13°C° 0 mm 1 m/s 751 mmHg 93%
04:00 +13°C° 0 mm 1 m/s 751 mmHg 92%
05:00 +13°C° 0 mm 1 m/s 751 mmHg 91%
06:00 +13°C° 0 mm 1 m/s 751 mmHg 90%
07:00 +15°C° 0 mm 1 m/s 750 mmHg 80%
08:00 +18°C° 0 mm 1 m/s 750 mmHg 70%
09:00 +20°C° 0 mm 1 m/s 750 mmHg 61%
10:00 +20°C° 0 mm 2 m/s 750 mmHg 58%
11:00 +21°C° 0 mm 2 m/s 749 mmHg 55%
12:00 +23°C° 0 mm 2 m/s 749 mmHg 52%
13:00 +21°C° 0.5 mm 2 m/s 749 mmHg 59%
14:00 +21°C° 0.5 mm 3 m/s 748 mmHg 66%
15:00 +20°C° 0.5 mm 3 m/s 748 mmHg 73%
16:00 +20°C° 0.3 mm 3 m/s 747 mmHg 74%
17:00 +20°C° 0.3 mm 2 m/s 747 mmHg 75%
18:00 +20°C° 0.3 mm 2 m/s 747 mmHg 76%
19:00 +18°C° 0 mm 2 m/s 747 mmHg 80%
20:00 +17°C° 0 mm 2 m/s 747 mmHg 84%
21:00 +15°C° 0 mm 2 m/s 747 mmHg 88%
22:00 +15°C° 0 mm 2 m/s 747 mmHg 89%
23:00 +14°C° 0 mm 2 m/s 747 mmHg 90%

10 Agosto, Segunda-feira

Tempo Temperatura Precipitação Vento Pressão Humidade
00:00 +13°C° 0 mm 2 m/s 747 mmHg 91%
01:00 +13°C° 0 mm 2 m/s 747 mmHg 90%
02:00 +12°C° 0 mm 1 m/s 747 mmHg 90%
03:00 +12°C° 0 mm 1 m/s 747 mmHg 90%
04:00 +12°C° 0 mm 1 m/s 747 mmHg 88%
05:00 +12°C° 0 mm 1 m/s 747 mmHg 86%
06:00 +12°C° 0 mm 1 m/s 747 mmHg 84%
07:00 +13°C° 0 mm 1 m/s 747 mmHg 80%
08:00 +13°C° 0 mm 0 m/s 747 mmHg 76%
09:00 +14°C° 0 mm 0 m/s 747 mmHg 72%
10:00 +15°C° 0.1 mm 1 m/s 747 mmHg 70%
11:00 +16°C° 0.1 mm 1 m/s 747 mmHg 68%
12:00 +18°C° 0.1 mm 1 m/s 747 mmHg 66%
13:00 +16°C° 0.3 mm 1 m/s 747 mmHg 73%
14:00 +15°C° 0.3 mm 1 m/s 747 mmHg 79%
15:00 +14°C° 0.3 mm 1 m/s 747 mmHg 85%
16:00 +15°C° 0.1 mm 1 m/s 747 mmHg 83%
17:00 +15°C° 0.1 mm 1 m/s 747 mmHg 81%
18:00 +16°C° 0.1 mm 1 m/s 747 mmHg 80%
19:00 +14°C° 0 mm 1 m/s 747 mmHg 84%
20:00 +13°C° 0 mm 1 m/s 747 mmHg 88%
21:00 +12°C° 0 mm 1 m/s 747 mmHg 92%
22:00 +12°C° 0 mm 1 m/s 747 mmHg 93%
23:00 +11°C° 0 mm 1 m/s 747 mmHg 93%
Mostrar mais